Weather History for Columbus, OH

Change the Weather History Date:

Saturday, September 21, 2013

  Actual Average Record
Temperature  
Mean Temperature 66 °F 65 °F  
Max Temperature 74 °F 75 °F 96 °F (1895)
Min Temperature 57 °F 54 °F 31 °F (1962)
Degree Days  
Heating Degree Days 0 3  
Month to date heating degree days 22 29  
Since 1 July heating degree days 26 29  
Cooling Degree Days 1 3  
Month to date cooling degree days 126 103  
Year to date cooling degree days 1127 992  
Growing Degree Days 17 (Base 50)    
Moisture  
Dew Point 61 °F    
Average Humidity 70    
Maximum Humidity 93    
Minimum Humidity 46    
Precipitation  
Precipitation 1.52 in 0.10 in 1.52 in (2013)
Month to date precipitation 2.51 2.03  
Year to date precipitation 29.15 29.72  
Snow  
Snow 0.00 in 0.00 in - ()
Month to date snowfall 0.0 0.0  
Since 1 July snowfall 0.0 0.0  
Since 1 September snowfall 0.0 0.0  
Snow Depth 0.00 in    
Sea Level Pressure  
Sea Level Pressure 29.73 in    
Wind  
Wind Speed 8 mph (WNW)    
Max Wind Speed 20 mph    
Max Gust Speed 26 mph    
Visibility 6 miles    
Events Rain    
T = Trace of Precipitation, MM = Missing Value Source: NWS Daily Summary

Daily Weather History Graph

Daily Weather History Graph

Search for Another Location

Airport:

Trip Planner

Search our weather history database for the weather conditions in past years. The results will help you decide how hot, cold, wet, or windy it might be!

Date:

Astronomy

Sep. 21, 2013 Rise Set
Actual Time 7:18 AM EDT 7:29 PM EDT
Civil Twilight 6:51 AM EDT 7:56 PM EDT
Nautical Twilight 6:19 AM EDT 8:28 PM EDT
Astronomical Twilight 5:47 AM EDT 9:00 PM EDT
Moon 8:40 PM EDT 9:35 AM EDT
Length of Visible Light 13h 05m
Length of Day
12h 11m
Waning Gibbous, 94% of the Moon is Illuminated
Sep 21
Waning Gibbous
Sep 26
Last Quarter
Oct 4
New
Oct 11
First Quarter
Oct 18
Full

Hourly Weather History & Observations

Time (EDT) Temp. Dew Point Humidity Pressure Visibility Wind Dir Wind Speed Gust Speed Precip Events Conditions
12:51 AM 71.1 °F 66.9 °F 87% 29.78 in 10.0 mi SSW 3.5 mph - 0.00 in Rain Light Rain
12:58 AM 71.6 °F 66.2 °F 83% 29.80 in 10.0 mi SW 3.5 mph - 0.00 in   Overcast
1:51 AM 71.1 °F 66.9 °F 87% 29.75 in 7.0 mi South 3.5 mph - 0.01 in Rain Light Rain
2:51 AM 70.0 °F 66.9 °F 90% 29.73 in 4.0 mi SE 5.8 mph - 0.07 in Rain Rain
3:15 AM 69.8 °F 66.2 °F 88% 29.73 in 3.0 mi SE 11.5 mph 17.3 mph 0.07 in Rain Rain
3:27 AM 69.8 °F 66.2 °F 88% 29.72 in 2.0 mi SSE 13.8 mph - 0.16 in Rain Heavy Rain
3:48 AM 69.8 °F 66.2 °F 88% 29.72 in 1.5 mi WNW 18.4 mph 24.2 mph 0.39 in Rain Heavy Rain
3:51 AM 69.1 °F 66.0 °F 90% 29.70 in 1.5 mi WNW 13.8 mph 24.2 mph 0.47 in Rain Heavy Rain
3:56 AM 69.8 °F 66.2 °F 88% 29.72 in 2.0 mi WSW 10.4 mph 19.6 mph 0.04 in Rain Heavy Rain
4:13 AM 69.8 °F 66.2 °F 88% 29.73 in 2.5 mi WSW 9.2 mph - 0.15 in Rain Heavy Rain
4:32 AM 68.0 °F 66.2 °F 94% 29.73 in 2.5 mi WNW 11.5 mph - 0.29 in Rain Heavy Rain
4:44 AM 68.0 °F 66.2 °F 94% 29.73 in 5.0 mi NW 5.8 mph - 0.34 in Rain Light Rain
4:51 AM 68.0 °F 66.0 °F 93% 29.71 in 7.0 mi NW 5.8 mph - 0.34 in Rain Light Rain
4:58 AM 66.2 °F 66.2 °F 100% 29.73 in 6.0 mi WNW 5.8 mph - 0.00 in Rain Light Rain
5:15 AM 66.2 °F 64.4 °F 94% 29.73 in 4.0 mi West 4.6 mph - 0.05 in Rain Rain
5:47 AM 68.0 °F 64.4 °F 88% 29.73 in 4.0 mi WSW 5.8 mph - 0.12 in Rain Rain
5:51 AM 68.0 °F 64.9 °F 90% 29.71 in 4.0 mi WSW 4.6 mph - 0.13 in Rain Rain
6:05 AM 66.2 °F 64.4 °F 94% 29.72 in 2.5 mi West 3.5 mph - 0.05 in Rain Heavy Rain
6:15 AM 66.2 °F 64.4 °F 94% 29.72 in 2.5 mi Calm Calm - 0.09 in Rain Rain
6:22 AM 68.0 °F 64.4 °F 88% 29.72 in 4.0 mi SW 3.5 mph - 0.11 in Rain Rain
6:51 AM 66.9 °F 64.9 °F 93% 29.69 in 4.0 mi South 3.5 mph - 0.13 in Rain Light Rain
6:58 AM 66.2 °F 64.4 °F 94% 29.71 in 7.0 mi SSW 3.5 mph - 0.01 in Rain Rain
7:07 AM 66.2 °F 64.4 °F 94% 29.71 in 8.0 mi SW 3.5 mph - 0.02 in Rain Light Rain
7:24 AM 66.2 °F 64.4 °F 94% 29.71 in 6.0 mi WSW 3.5 mph - 0.03 in Rain Light Rain
7:38 AM 66.2 °F 64.4 °F 94% 29.72 in 5.0 mi Calm Calm - 0.05 in Rain Rain
7:46 AM 66.2 °F 64.4 °F 94% 29.72 in 4.0 mi Calm Calm - 0.06 in Rain Rain
7:51 AM 66.9 °F 64.9 °F 93% 29.70 in 4.0 mi WSW 3.5 mph - 0.07 in Rain Rain
8:00 AM 66.2 °F 64.4 °F 94% 29.71 in 2.0 mi Calm Calm - 0.02 in Rain Heavy Rain
8:19 AM 66.2 °F 64.4 °F 94% 29.71 in 2.0 mi Calm Calm - 0.11 in Rain Rain
8:37 AM 68.0 °F 64.4 °F 88% 29.70 in 2.0 mi ESE 3.5 mph - 0.14 in Rain Light Rain
8:51 AM 68.0 °F 64.9 °F 90% 29.68 in 2.0 mi SSE 4.6 mph - 0.15 in Rain Light Rain
9:02 AM 66.2 °F 64.4 °F 94% 29.70 in 2.0 mi South 3.5 mph - 0.00 in Rain Light Rain
9:51 AM 68.0 °F 64.9 °F 90% 29.68 in 2.0 mi Calm Calm - 0.04 in Rain Rain
10:14 AM 64.4 °F 62.6 °F 94% 29.72 in 1.5 mi NW 17.3 mph 26.5 mph 0.05 in Rain Heavy Rain
10:21 AM 64.4 °F 60.8 °F 88% 29.72 in 1.5 mi NNW 11.5 mph 26.5 mph 0.10 in Rain Rain
10:24 AM 64.4 °F 60.8 °F 88% 29.72 in 2.0 mi North 16.1 mph 24.2 mph 0.10 in Rain Rain
10:51 AM 63.0 °F 60.1 °F 90% 29.72 in 5.0 mi NNW 12.7 mph - 0.11 in   Overcast
11:12 AM 62.6 °F 59.0 °F 88% 29.73 in 6.0 mi NNW 11.5 mph - N/A   Overcast
11:19 AM 62.6 °F 59.0 °F 88% 29.73 in 6.0 mi NNW 9.2 mph - N/A   Overcast
11:51 AM 63.0 °F 57.9 °F 84% 29.73 in 6.0 mi NW 6.9 mph - N/A   Haze
12:23 PM 64.4 °F 59.0 °F 83% 29.75 in 7.0 mi NW 10.4 mph - N/A   Overcast
12:51 PM 66.0 °F 57.9 °F 75% 29.74 in 7.0 mi NW 12.7 mph - N/A   Mostly Cloudy
12:58 PM 66.2 °F 57.2 °F 73% 29.75 in 10.0 mi NW 12.7 mph - N/A   Mostly Cloudy
1:13 PM 66.2 °F 57.2 °F 73% 29.75 in 7.0 mi NNW 9.2 mph - N/A   Mostly Cloudy
1:38 PM 69.8 °F 55.4 °F 60% 29.76 in 7.0 mi NW 15.0 mph 19.6 mph N/A   Mostly Cloudy
1:51 PM 69.1 °F 55.9 °F 63% 29.74 in 10.0 mi NNW 12.7 mph - N/A   Mostly Cloudy
2:51 PM 71.1 °F 52.0 °F 51% 29.74 in 10.0 mi NNW 13.8 mph - N/A   Mostly Cloudy
3:51 PM 73.0 °F 52.0 °F 48% 29.73 in 10.0 mi NNW 11.5 mph - N/A   Scattered Clouds
4:51 PM 72.0 °F 51.1 °F 48% 29.73 in 10.0 mi NNW 12.7 mph - N/A   Scattered Clouds
5:51 PM 71.1 °F 51.1 °F 49% 29.75 in 10.0 mi NNW 11.5 mph - N/A   Scattered Clouds
6:51 PM 69.1 °F 48.9 °F 49% 29.76 in 10.0 mi NW 9.2 mph - N/A   Scattered Clouds
7:51 PM 64.9 °F 50.0 °F 58% 29.77 in 10.0 mi NW 6.9 mph - N/A   Partly Cloudy
8:51 PM 64.0 °F 48.9 °F 58% 29.80 in 10.0 mi NNW 5.8 mph - N/A   Clear
9:51 PM 62.1 °F 46.9 °F 58% 29.81 in 10.0 mi NW 6.9 mph - N/A   Clear
10:51 PM 61.0 °F 46.9 °F 60% 29.83 in 10.0 mi NNW 8.1 mph - N/A   Clear
11:51 PM 60.1 °F 46.0 °F 60% 29.86 in 10.0 mi NNW 10.4 mph - N/A   Clear